Погода в Долгой Поляне

Россия / Белгородская область     51°09′06″N   37°44′58″E
темп.,
°C
ветер,
м/с
пор.,
м/с
влажн.,
%
обл.,
%
осадки,
мм/ч
давл.,
гПа
погр.,
м
21 января, пт
пт2100:00−7ю51494100 0.3 1011454
03:00−7ю51494100 1.2 1009486
06:00−6ююв51595100 1.1 1005591
09:00−3ю51496100 2.8 1003666
12:00−2юз599390 0.6 1003574
15:00−2зюз51091100 1.6 1003920
18:00−6ююз5139065 0.0 1004450
21:00−4ююз71490100 0.1 1004739
22 января, сб
сб2200:00−5ююз71590100 0.1 1005646
03:00−6ююз61391100 0.1 1006478
06:00−7ююз51293100 0.0 1006401
09:00−8ю51194100 0.1 1008376
12:00−6ююз51093100 0.1 1009422
15:00−5ююз4894100 0.1 1010473
18:00−7ю3896100 0.1 1012193
21:00−8ю2897100 0.1 1014158
23 января, вс
вс2300:00−13ю2210098 0.0 101611
03:00−15ю21100100 0.1 101811
06:00−16ююв1199100 0.1 102011
09:00−8юв1396100 0.1 1022216
12:00−6всв2392100 0.1 1023374
15:00−6всв3591100 0.1 1025439
18:00−12ссв3797100 0.0 1027103
21:00−9ссв41193100 0.0 1028273
24 января, пн
пн2400:00−9ссв51491100 0.0 1028351
03:00−8ссв61695100 0.3 1028495
06:00−7св61495100 1.1 1027476
09:00−6св61394100 2.1 1029489
12:00−4св6119388 0.1 1029529
15:00−4св599399 0.1 1029545
18:00−7св41094100 0.0 1030276
21:00−8св41194100 0.0 1030298
25 января, вт
вт2500:00−11св3995100 0.0 1030166
03:00−13ссв369699 0.0 1030112
06:00−16ссв259868 0.0 102965
09:00−16св259972 0.0 102984
12:00−9в359295 0.0 1028229
15:00−7в249297 0.0 1026262
18:00−12всв119878 0.1 102610
21:00−14в119986 0.1 102510